Location: Krasnoyarskiy Pitomnik
(51.1333°N, 71.6167°E)
Time: 13:49:11
(UTC+00:00)

Transit 2A - Pass Details

Date: 20 April 2024
Orbit: 594 x 958 km, 66.7° (Epoch: 27 May)

Event Time Altitude Azimuth Distance (km) Brightness Sun altitude
Rises 10:09:21 0° 320° (NW) 3,216 9.3 36.8°
Reaches altitude 10° 10:11:39 10° 319° (NW) 2,342 8.7 36.5°
Maximum altitude 10:17:02 69° 237° (WSW) 897 7.5 35.8°
Drops below altitude 10° 10:22:56 10° 155° (SSE) 2,563 8.8 34.9°
Sets 10:25:33 0° 153° (SSE) 3,542 9.5 34.6°
